Location: Les Chemineaux
(47.3024°N, 1.5104°E)
Time: 23:35:53
(UTC+00:00)

Cosmos 1707 - Pass Details

Date: 19 May 2025
Orbit: 422 x 430 km, 82.5° (Epoch: 18 June)

Event Time Altitude Azimuth Distance (km) Brightness Sun altitude
Exits shadow 22:53:19 32° 64° (ENE) 771 3.6 -21.5°
Drops below altitude 10° 22:55:44 10° 25° (NNE) 1,550 5.8 -21.6°
Sets 22:57:53 0° 17° (NNE) 2,425 7.1 -21.7°
